FW0954 Weather Reports


time (UTC)temp
C
wind
direction
speed
KPH
gust
KPH
rain 1hr
cm
rain 24hr
cm
rain mn
cm
humidity
%
barometer
mb
20260906121503 24 0 0.0 0.0 0.00 0.00 0.00 94 1013.9
20260906121003 24 0 0.0 0.0 0.00 0.00 0.00 94 1013.9
20260906120502 24 0 0.0 0.0 0.00 0.00 0.00 94 1013.9
20260906115503 24 0 0.0 0.0 0.00 0.00 0.00 94 1013.8
20260906115003 24 0 0.0 0.0 0.00 0.00 0.00 94 1013.8
20260906114502 24 0 0.0 0.0 0.00 0.00 0.00 94 1013.8
20260906114003 24 164 0.0 1.6 0.00 0.00 0.00 94 1013.8
20260906113503 24 164 0.0 1.6 0.00 0.00 0.00 94 1013.8
20260906113003 24 0 0.0 0.0 0.00 0.00 0.00 94 1013.8
20260906112503 24 0 0.0 0.0 0.00 0.00 0.00 94 1013.7
20260906112003 24 0 0.0 0.0 0.00 0.00 0.00 94 1013.7
20260906111503 24 0 0.0 0.0 0.00 0.00 0.00 93 1013.7
20260906111003 24 0 0.0 0.0 0.00 0.00 0.00 93 1013.6
20260906110503 24 0 0.0 0.0 0.00 0.00 0.00 93 1013.6
20260906110003 24 0 0.0 0.0 0.00 0.00 0.00 93 1013.5
20260906105502 24 0 0.0 0.0 0.00 0.00 0.00 93 1013.5
20260906105002 24 0 0.0 0.0 0.00 0.00 0.00 93 1013.4
20260906104003 25 0 0.0 0.0 0.00 0.00 0.00 93 1013.4
20260906103503 25 0 0.0 0.0 0.00 0.00 0.00 93 1013.4
20260906103003 25 0 0.0 0.0 0.00 0.00 0.00 93 1013.3
20260906102003 25 0 0.0 0.0 0.00 0.00 0.00 93 1013.2
20260906100503 25 0 0.0 0.0 0.00 0.00 0.00 93 1013.2
20260906100003 25 0 0.0 0.0 0.00 0.00 0.00 93 1013.2
20260906095503 25 0 0.0 0.0 0.00 0.00 0.00 93 1013.1
20260906095003 25 0 0.0 0.0 0.00 0.00 0.00 93 1013.0
20260906093503 25 160 0.0 3.2 0.00 0.00 0.00 93 1012.8
20260906093002 25 163 0.0 3.2 0.00 0.00 0.00 93 1012.7
20260906092003 25 192 0.0 3.2 0.00 0.00 0.00 93 1012.6
20260906091503 25 192 0.0 3.2 0.00 0.00 0.00 93 1012.8
20260906091003 25 0 0.0 0.0 0.00 0.00 0.00 92 1012.8
20260906090503 25 0 0.0 0.0 0.00 0.00 0.00 92 1012.7
20260906090003 25 0 0.0 0.0 0.00 0.00 0.00 92 1012.6
20260906085503 25 0 0.0 0.0 0.00 0.00 0.00 91 1012.6
20260906085003 25 0 0.0 0.0 0.00 0.00 0.00 91 1012.6
20260906084503 25 0 0.0 0.0 0.00 0.00 0.00 91 1012.6
20260906084004 25 0 0.0 0.0 0.00 0.00 0.00 91 1012.6
20260906083003 25 0 0.0 0.0 0.00 0.00 0.00 90 1012.5
20260906082503 25 0 0.0 0.0 0.00 0.00 0.00 90 1012.6
20260906082003 25 0 0.0 0.0 0.00 0.00 0.00 90 1012.8
20260906081503 25 0 0.0 0.0 0.00 0.00 0.00 90 1012.8
20260906081003 25 0 0.0 0.0 0.00 0.00 0.00 90 1012.8
20260906080503 25 0 0.0 0.0 0.00 0.00 0.00 90 1012.8
20260906080004 25 0 0.0 0.0 0.00 0.00 0.00 89 1012.8
20260906075503 25 0 0.0 0.0 0.00 0.00 0.00 89 1012.8
20260906075004 25 0 0.0 0.0 0.00 0.00 0.00 89 1012.8
20260906074003 25 0 0.0 0.0 0.00 0.00 0.00 89 1012.8
20260906073503 26 168 0.0 1.6 0.00 0.00 0.00 89 1012.9
20260906073003 26 171 0.0 1.6 0.00 0.00 0.00 88 1012.8
20260906072504 26 173 0.0 1.6 0.00 0.00 0.00 88 1012.9
20260906072003 26 0 0.0 0.0 0.00 0.00 0.00 88 1012.9
20260906071503 26 0 0.0 0.0 0.00 0.00 0.00 87 1012.9
20260906071004 26 156 0.0 1.6 0.00 0.00 0.00 87 1012.8
20260906070503 26 164 0.0 3.2 0.00 0.00 0.00 87 1013.0
20260906070003 26 172 0.0 3.2 0.00 0.00 0.00 87 1012.9
20260906065003 26 0 0.0 0.0 0.00 0.00 0.00 87 1012.8
20260906064003 26 182 0.0 1.6 0.00 0.00 0.00 87 1012.6
20260906063504 26 178 0.0 4.8 0.00 0.00 0.00 86 1012.9
20260906063003 26 183 1.6 4.8 0.00 0.00 0.00 86 1012.9
20260906062503 26 189 1.6 4.8 0.00 0.00 0.00 86 1012.9
20260906062003 26 188 1.6 4.8 0.00 0.00 0.00 86 1012.9
20260906061503 26 177 0.0 4.8 0.00 0.00 0.00 85 1013.1
20260906061004 26 175 0.0 4.8 0.00 0.00 0.00 85 1013.2
20260906060003 27 170 1.6 4.8 0.00 0.00 0.00 85 1013.2
20260906054004 27 169 1.6 8.0 0.00 0.00 0.00 83 1013.2
20260906053504 27 173 1.6 8.0 0.00 0.00 0.00 83 1013.2
20260906053004 27 179 0.0 8.0 0.00 0.00 0.00 83 1013.2
20260906052504 27 172 0.0 3.2 0.00 0.00 0.00 82 1013.2
20260906052004 27 174 0.0 3.2 0.00 0.00 0.00 82 1013.2
20260906051503 27 173 0.0 3.2 0.00 0.00 0.00 81 1013.3
20260906050002 27 168 1.6 4.8 0.00 0.00 0.00 80 1013.0
20260906045501 27 162 1.6 4.8 0.00 0.00 0.00 80 1013.1
20260906045001 28 169 1.6 6.4 0.00 0.00 0.00 79 1013.2
20260906044001 28 181 3.2 9.7 0.00 0.00 0.00 79 1012.7
20260906043501 28 184 1.6 9.7 0.00 0.00 0.00 79 1012.8
20260906043001 28 189 1.6 4.8 0.00 0.00 0.00 79 1012.8
20260906042502 28 185 0.0 3.2 0.00 0.00 0.00 79 1012.9
20260906042001 28 196 0.0 3.2 0.00 0.00 0.00 79 1012.8
20260906041502 28 176 1.6 6.4 0.00 0.00 0.00 79 1012.9
20260906041001 28 175 3.2 8.0 0.00 0.00 0.00 79 1013.1
20260906040501 28 173 1.6 8.0 0.00 0.00 0.00 78 1013.2
20260906040001 28 168 1.6 8.0 0.00 0.00 0.00 78 1013.2
20260906035501 28 176 1.6 8.0 0.00 0.00 0.00 77 1013.2
20260906034001 28 173 1.6 8.0 0.00 0.00 0.00 77 1013.1
20260906033001 28 176 0.0 3.2 0.00 0.00 0.00 77 1012.9
20260906031502 28 169 0.0 4.8 0.00 0.00 0.00 77 1013.1
20260906031001 28 158 0.0 3.2 0.00 0.00 0.00 76 1012.9
20260906030002 29 185 1.6 6.4 0.00 0.00 0.00 76 1012.9
20260906025501 29 188 1.6 6.4 0.00 0.00 0.00 76 1012.8
20260906025001 29 193 1.6 4.8 0.00 0.00 0.00 76 1012.9
20260906024501 29 188 1.6 4.8 0.00 0.00 0.00 76 1012.9
20260906024002 29 175 1.6 9.7 0.00 0.00 0.00 76 1012.8
20260906023501 29 175 1.6 9.7 0.00 0.00 0.00 76 1012.7
20260906023001 29 174 1.6 8.0 0.00 0.00 0.00 75 1012.7
20260906022501 29 179 1.6 8.0 0.00 0.00 0.00 75 1012.6
20260906022001 30 183 1.6 6.4 0.00 0.00 0.00 75 1012.5
20260906021502 30 172 1.6 6.4 0.00 0.00 0.00 75 1012.4
20260906020501 30 170 1.6 8.0 0.00 0.00 0.00 75 1012.2
20260906015002 30 176 1.6 6.4 0.00 0.00 0.00 74 1012.1
20260906014501 30 172 1.6 6.4 0.00 0.00 0.00 74 1012.0
20260906013501 30 161 1.6 8.0 0.00 0.00 0.00 73 1011.9
20260906013002 30 157 1.6 4.8 0.00 0.00 0.00 72 1011.8
20260906012001 30 166 1.6 8.0 0.00 0.00 0.00 71 1011.7
20260906011502 30 166 1.6 6.4 0.00 0.00 0.00 70 1011.5
20260906011002 31 168 1.6 6.4 0.00 0.00 0.00 70 1011.5
20260906010501 31 173 3.2 9.7 0.00 0.00 0.00 69 1011.5
20260906010002 31 170 3.2 12.9 0.00 0.00 0.00 69 1011.5
20260906005502 31 161 3.2 12.9 0.00 0.00 0.00 68 1011.5
20260906005002 31 155 3.2 12.9 0.00 0.00 0.00 67 1011.4
20260906004501 31 150 3.2 12.9 0.00 0.00 0.00 66 1011.6
20260906004002 32 151 4.8 12.9 0.00 0.00 0.00 65 1011.6
20260906003502 32 144 3.2 16.1 0.00 0.00 0.00 64 1011.5
20260906003002 32 147 4.8 16.1 0.00 0.00 0.00 63 1011.5
20260906001001 35 150 3.2 17.7 0.00 0.00 0.00 56 1011.2
20260906000502 35 152 3.2 16.1 0.00 0.00 0.00 55 1011.1
20260906000002 35 162 4.8 16.1 0.00 0.00 0.00 54 1011.1
20260905235502 36 162 4.8 16.1 0.00 0.00 0.00 54 1011.2
20260905234502 36 157 3.2 12.9 0.00 0.00 0.00 54 1011.0
20260905233502 37 149 1.6 14.5 0.00 0.00 0.00 51 1010.8
20260905233002 38 153 0.0 4.8 0.00 0.00 0.00 48 1010.7
20260905232002 38 186 1.6 4.8 0.00 0.00 0.00 47 1010.7
20260905231502 38 160 0.0 3.2 0.00 0.00 0.00 47 1010.8
20260905231002 38 120 0.0 3.2 0.00 0.00 0.00 47 1010.8
20260905230502 38 109 0.0 8.0 0.00 0.00 0.00 48 1010.9
20260905230002 38 112 0.0 8.0 0.00 0.00 0.00 47 1010.9
20260905225502 38 107 0.0 1.6 0.00 0.00 0.00 47 1010.8
20260905225001 38 84 0.0 3.2 0.00 0.00 0.00 47 1010.9
20260905224502 38 81 0.0 4.8 0.00 0.00 0.00 47 1010.8
20260905224002 38 96 0.0 4.8 0.00 0.00 0.00 47 1010.8
20260905223502 38 117 1.6 4.8 0.00 0.00 0.00 48 1010.7
20260905223001 38 110 1.6 4.8 0.00 0.00 0.00 47 1010.8
20260905222501 38 86 0.0 4.8 0.00 0.00 0.00 49 1010.7
20260905222001 38 68 0.0 3.2 0.00 0.00 0.00 48 1010.7
20260905221502 38 81 0.0 3.2 0.00 0.00 0.00 48 1010.8
20260905221002 38 66 0.0 3.2 0.00 0.00 0.00 48 1010.8
20260905220502 38 87 0.0 4.8 0.00 0.00 0.00 48 1010.8
20260905220002 38 109 0.0 4.8 0.00 0.00 0.00 48 1010.9
20260905215502 38 106 0.0 3.2 0.00 0.00 0.00 47 1010.9
20260905215002 39 102 0.0 3.2 0.00 0.00 0.00 46 1011.0
20260905214502 39 179 0.0 4.8 0.00 0.00 0.00 47 1011.1
20260905214003 38 143 0.0 4.8 0.00 0.00 0.00 46 1011.0
20260905213002 38 120 0.0 4.8 0.00 0.00 0.00 48 1011.1
20260905212002 38 99 0.0 4.8 0.00 0.00 0.00 46 1011.2
20260905211502 38 121 0.0 4.8 0.00 0.00 0.00 46 1011.2
20260905211002 38 105 0.0 4.8 0.00 0.00 0.00 47 1011.3
20260905210502 38 85 0.0 4.8 0.00 0.00 0.00 48 1011.3
20260905210002 38 102 1.6 4.8 0.00 0.00 0.00 46 1011.4
20260905205502 38 124 0.0 4.8 0.00 0.00 0.00 47 1011.5
20260905204502 38 122 0.0 4.8 0.00 0.00 0.00 48 1011.5
20260905204002 38 112 1.6 4.8 0.00 0.00 0.00 49 1011.5
20260905203502 38 81 1.6 4.8 0.00 0.00 0.00 49 1011.7
20260905203002 38 90 0.0 4.8 0.00 0.00 0.00 49 1011.9
20260905202502 38 97 0.0 4.8 0.00 0.00 0.00 48 1011.9
20260905201002 37 90 0.0 6.4 0.00 0.00 0.00 51 1012.0
20260905200501 37 66 0.0 4.8 0.00 0.00 0.00 51 1012.0
20260905200002 37 71 1.6 4.8 0.00 0.00 0.00 50 1012.1
20260905195502 37 81 1.6 4.8 0.00 0.00 0.00 50 1012.1
20260905195001 37 115 1.6 6.4 0.00 0.00 0.00 50 1012.1
20260905194503 37 115 1.6 8.0 0.00 0.00 0.00 50 1012.2
20260905194002 37 115 1.6 9.7 0.00 0.00 0.00 50 1012.3
20260905193002 37 71 1.6 6.4 0.00 0.00 0.00 49 1012.5
20260905192502 38 76 1.6 6.4 0.00 0.00 0.00 49 1012.6
20260905191502 37 121 1.6 6.4 0.00 0.00 0.00 50 1012.7
20260905191002 38 170 1.6 6.4 0.00 0.00 0.00 49 1013.0
20260905190502 37 184 1.6 6.4 0.00 0.00 0.00 51 1013.1
20260905190002 37 185 1.6 9.7 0.00 0.00 0.00 50 1013.2
20260905185502 37 183 1.6 9.7 0.00 0.00 0.00 50 1013.2
20260905185002 37 151 1.6 8.0 0.00 0.00 0.00 51 1013.5
20260905184502 37 131 0.0 8.0 0.00 0.00 0.00 51 1013.5
20260905183502 37 73 1.6 6.4 0.00 0.00 0.00 52 1013.7
20260905183002 37 86 1.6 6.4 0.00 0.00 0.00 52 1013.8
20260905182503 37 82 1.6 6.4 0.00 0.00 0.00 52 1013.9
20260905182002 36 100 1.6 9.7 0.00 0.00 0.00 53 1014.0
20260905181503 36 116 1.6 9.7 0.00 0.00 0.00 53 1014.0
20260905181003 36 130 1.6 8.0 0.00 0.00 0.00 53 1014.1
20260905180503 37 145 1.6 6.4 0.00 0.00 0.00 52 1014.2
20260905180003 36 120 1.6 6.4 0.00 0.00 0.00 54 1014.2
20260905175502 36 88 0.0 3.2 0.00 0.00 0.00 55 1014.3
20260905175002 36 107 1.6 6.4 0.00 0.00 0.00 55 1014.4
20260905174003 36 73 1.6 6.4 0.00 0.00 0.00 56 1014.5
20260905173503 35 77 1.6 6.4 0.00 0.00 0.00 56 1014.5
20260905173003 35 92 1.6 6.4 0.00 0.00 0.00 57 1014.5
20260905172503 35 119 1.6 6.4 0.00 0.00 0.00 59 1014.6
20260905172002 35 122 1.6 6.4 0.00 0.00 0.00 58 1014.8
20260905171503 35 116 1.6 6.4 0.00 0.00 0.00 58 1014.7
20260905171003 35 109 0.0 4.8 0.00 0.00 0.00 59 1014.7
20260905170503 35 96 0.0 3.2 0.00 0.00 0.00 60 1014.8
20260905170003 35 101 1.6 4.8 0.00 0.00 0.00 60 1014.8
20260905165502 35 101 0.0 4.8 0.00 0.00 0.00 61 1014.8
20260905165002 34 90 0.0 3.2 0.00 0.00 0.00 62 1014.8
20260905164502 34 71 0.0 3.2 0.00 0.00 0.00 62 1014.9
20260905163503 34 114 0.0 6.4 0.00 0.00 0.00 63 1015.0
20260905163002 33 85 0.0 6.4 0.00 0.00 0.00 64 1015.0
20260905162502 33 114 1.6 6.4 0.00 0.00 0.00 64 1015.1
20260905162003 33 125 1.6 8.0 0.00 0.00 0.00 64 1015.0
20260905161502 33 130 1.6 8.0 0.00 0.00 0.00 65 1015.0
20260905161003 33 127 1.6 6.4 0.00 0.00 0.00 64 1014.9
20260905160503 33 124 0.0 6.4 0.00 0.00 0.00 66 1015.0
20260905160003 33 139 0.0 1.6 0.00 0.00 0.00 67 1015.0
20260905155003 33 110 0.0 3.2 0.00 0.00 0.00 67 1015.0
20260905154503 33 259 0.0 3.2 0.00 0.00 0.00 69 1015.0
20260905154003 32 267 1.6 4.8 0.00 0.00 0.00 66 1015.2
20260905153002 32 242 0.0 4.8 0.00 0.00 0.00 68 1014.9
20260905152502 32 275 0.0 6.4 0.00 0.00 0.00 68 1015.0
20260905152003 32 270 1.6 6.4 0.00 0.00 0.00 69 1014.9
20260905151502 32 266 1.6 6.4 0.00 0.00 0.00 69 1014.9
20260905151002 31 280 1.6 8.0 0.00 0.00 0.00 70 1014.8
20260905150503 31 286 1.6 8.0 0.00 0.00 0.00 71 1014.7
20260905150003 31 281 1.6 8.0 0.00 0.00 0.00 72 1014.8
20260905145502 31 280 1.6 6.4 0.00 0.00 0.00 72 1014.8
20260905145002 31 282 0.0 4.8 0.00 0.00 0.00 72 1014.7
20260905144502 30 273 0.0 4.8 0.00 0.00 0.00 74 1014.7
20260905144002 30 270 1.6 4.8 0.00 0.00 0.00 75 1014.7
20260905143503 30 276 1.6 4.8 0.00 0.00 0.00 75 1014.7
20260905143003 30 280 1.6 4.8 0.00 0.00 0.00 75 1014.7
20260905142503 29 288 0.0 4.8 0.00 0.00 0.00 76 1014.8
20260905142003 29 288 0.0 4.8 0.00 0.00 0.00 75 1014.9
20260905141503 30 256 0.0 4.8 0.00 0.00 0.00 75 1014.7
20260905141003 29 216 0.0 3.2 0.00 0.00 0.00 76 1014.8
20260905140004 28 196 0.0 1.6 0.00 0.00 0.00 77 1014.8
20260905135502 28 193 0.0 1.6 0.00 0.00 0.00 79 1014.8
20260905135002 28 197 0.0 3.2 0.00 0.00 0.00 79 1014.7
20260905134503 27 201 0.0 3.2 0.00 0.00 0.00 80 1014.7
20260905134003 27 0 0.0 0.0 0.00 0.00 0.00 81 1014.7
20260905133502 26 0 0.0 0.0 0.00 0.00 0.00 83 1014.6
20260905133002 26 0 0.0 0.0 0.00 0.00 0.00 84 1014.5
20260905132502 26 203 0.0 1.6 0.00 0.00 0.00 85 1014.4
20260905131503 25 204 0.0 3.2 0.00 0.00 0.00 85 1014.4
20260905131003 25 203 0.0 3.2 0.00 0.00 0.00 86 1014.4
20260905130503 25 197 0.0 3.2 0.00 0.00 0.00 86 1014.3
20260905130003 25 195 0.0 4.8 0.00 0.00 0.00 86 1014.2
20260905125503 25 187 1.6 4.8 0.00 0.00 0.00 87 1014.2
20260905125003 25 183 1.6 4.8 0.00 0.00 0.00 87 1014.0
20260905124503 24 196 0.0 4.8 0.00 0.00 0.00 88 1014.0
20260905124002 24 209 0.0 3.2 0.00 0.00 0.00 88 1014.1
20260905123503 24 0 0.0 0.0 0.00 0.00 0.00 88 1014.1
20260905122503 24 0 0.0 0.0 0.00 0.00 0.00 88 1014.1
20260905122002 24 0 0.0 0.0 0.00 0.00 0.00 88 1014.1